Погода в Свердлове

Россия / Иркутская область     52°35′14″N   104°47′23″E
темп.,
°C
ветер,
м/с
пор.,
м/с
влажн.,
%
обл.,
%
осадки,
мм/ч
давл.,
гПа
погр.,
м
26 февраля, пт
пт2623:00−11юв2587100 0.1 1011128
02:00−11зюз3796100 0.1 1017305
05:00−12з4995100 0.5 1020437
08:00−12зсз3996100 1.3 1022550
11:00−12сз4694100 0.5 1020571
14:00−11сз4691100 1.6 1019651
17:00−12зсз5891100 0.4 1020705
20:00−15зсз41095100 0.7 1025516
27 февраля, сб
сб2723:00−17зсз4997100 0.4 1029373
02:00−23з2310098 0.5 103143
05:00−26юз1210096 0.0 103419
08:00−25юз1210097 0.1 103620
11:00−20з2496100 0.2 1037344
14:00−17з2382100 0.3 1036782
17:00−17зсз2281100 0.0 1036658
20:00−23вюв129167 0.0 103920
28 февраля, вс
вс2823:00−24вюв128910 0.0 104020
02:00−25вюв11839 0.0 104020
05:00−26вюв118075 0.0 104020
08:00−25юв228155 0.0 104121
11:00−17зсз118264 0.0 1040274
14:00−15сз118380 0.0 1038472
17:00−16ссз128968 0.0 1037204
20:00−20юв118884 0.0 104020
1 марта, пн
пн123:00−22юв128054 0.0 104020
02:00−23в117773 0.0 103820
05:00−23юв22810 0.0 103720
08:00−24юв12840 0.0 103620
11:00−15юз027816 0.0 1033279
14:00−10зюз14778 0.0 1028506
17:00−10ю03830 0.0 1025318
20:00−16в128633 0.0 102521
2 марта, вт
вт223:00−16юв1180100 0.0 102220
02:00−17юв1179100 0.0 101920
05:00−16юв1185100 0.0 101820
08:00−19ююв118992 0.0 101820
11:00−12з118391 0.0 1016244
14:00−7сз227972 0.0 1014337
17:00−8с118893 0.0 1012161
20:00−11всв129197 0.0 101321